Location: Quedlinburg
(51.7921°N, 11.1414°E)
Time: 08:18:03
(UTC+02:00)

SO-50 - Pass Details

Date: 15 March 2026
Orbit: 567 x 673 km, 64.6° (Epoch: 13 April)

Event Time Altitude Azimuth Distance (km) Brightness Sun altitude
Rises 19:17:39 0° 231° (SW) 2,941 ? -9.7°
Reaches altitude 10° 19:19:56 10° 234° (SW) 2,050 ? -10.1°
Maximum altitude 19:24:35 65° 317° (NW) 728 ? -10.8°
Drops below altitude 10° 19:29:21 10° 40° (NE) 2,106 ? -11.5°
Sets 19:31:43 0° 43° (NE) 3,029 ? -11.9°
